Regional Weather Roundup
Issued by NWS

Home | Current Version | Previous Version | Text Only | Print | Product List | Glossary On
Versions: 1 2 3 4 5 6 7 8 9 10 11 12 13 14 15 16 17 18 19 20 21 22 23 24 25 26 27 28
000
ASUS43 KMPX 101410
RWRMN
WEATHER ROUNDUP FOR MINNESOTA
NATIONAL WEATHER SERVICE TWIN CITIES/CHANHASSEN MN
900 AM CDT MON MAY 10 2021


NOTE: "FAIR" INDICATES FEW OR NO CLOUDS BELOW 12,000 FEET WITH NO
SIGNIFICANT WEATHER AND/OR OBSTRUCTIONS TO VISIBILITY. N/A MEANS
CURRENT SKY AND/OR WEATHER CONDITIONS ARE NOT AVAILABLE.

MNZ060>063-068>070-101500-
   Twin Cities Metro

CITY           SKY/WX    TMP DP  RH WIND       PRES   REMARKS
TWIN CITIES    PTSUNNY   44  31  60 NE9G18    30.22R
ST PAUL        CLOUDY    44  29  55 VRB6      30.23R
CRYSTAL        PTSUNNY   46  29  51 VRB7      30.20F
BLAINE         MOSUNNY   46  28  49 NE7       30.21S
LAKEVILLE      MOSUNNY   45  30  57 NE8       30.20S
EDEN PRAIRIE   CLOUDY    44  34  67 NE7       30.20S
SOUTH ST PAUL  CLOUDY    44  30  57 NE3       30.21S
$$
MNZ001>005-007-008-013>017-022>024-027-028-101500-
   Northwest Minnesota

CITY           SKY/WX    TMP DP  RH WIND       PRES   REMARKS
BEMIDJI        CLOUDY    40  26  57 NE3       30.27S
HALLOCK        SUNNY     46  23  39 N9        30.32S
ROSEAU           N/A     46 N/A N/A E6        30.32S
WARROAD        PTSUNNY   43  28  56 NE10      30.33S
THIEF RVR FALL CLOUDY    43  24  47 E9        30.32R
CROOKSTON      CLOUDY    43  21  42 NE8       30.31S
FOSSTON        CLOUDY    41  23  48 E7        30.29S
DETROIT LAKES  CLOUDY    43  27  52 NE9       30.26S
MOORHEAD       SUNNY     48  21  34 NE8       30.28S
PARK RAPIDS    CLOUDY    43  24  47 NE7       30.25S
MAHNOMEN       CLOUDY    43  25  49 E12       30.28R
$$
MNZ006-009>011-018-025>026-101500-
   North Central Minnesota

CITY           SKY/WX    TMP DP  RH WIND       PRES   REMARKS
BAUDETTE       SUNNY     43  24  47 NE7       30.32R
FLAG ISLAND    SUNNY     39  19  45 E8        30.33R
INTL FALLS     SUNNY     42  25  50 NE8       30.30R
WASKISH        SUNNY     43  25  49 E5        30.30S
BIG FORK       MOSUNNY   43  27  52 N5        30.32S
LONGVILLE      SUNNY     45  27  49 NE6       30.25S
GRAND RAPIDS   CLOUDY    40  27  59 E6        30.28R
CRANE LAKE     SUNNY     39  27  60 N6        30.31S
ORR            SUNNY     43  23  45 CALM      30.26R
COOK           SUNNY     41  27  56 N7        30.26S
WALKER         CLOUDY    41  28  60 NE3       30.27R
$$
MNZ012-019>021-037-101500-
   Northeast Minnesota

CITY           SKY/WX    TMP DP  RH WIND       PRES   REMARKS
DULUTH         CLOUDY    42  26  53 NE9       30.24R
ELY            SUNNY     39  25  56 NE5       30.25S
HIBBING        MOSUNNY   43  25  49 NE6       30.25S
EVELETH        SUNNY     43  26  52 NE8       30.26R
DULUTH HARBOR  CLOUDY    43  28  56 NE6       30.28R
TWO HARBORS    MOSUNNY   45  25  45 E6        30.24R
SILVER BAY     SUNNY     45  25  45 CALM      30.24S
GRAND MARAIS     N/A     47  28  47 VRB3      30.24S
G MARAIS ARPRT PTSUNNY   39  25  56 N13G18    30.21R
$$
MNZ029>031-032-039>041-046>048-054>057-064-101500-
   West Central Minnesota

CITY           SKY/WX    TMP DP  RH WIND       PRES   REMARKS
FERGUS FALLS   CLOUDY    45  28  53 E9        30.22R
WHEATON        CLOUDY    45  28  53 NE5       30.27R
MORRIS         MOSUNNY   46  23  39 E10       30.24S
ALEXANDRIA     CLOUDY    43  28  55 NE12      30.24R
ELBOW LAKE     CLOUDY    43  28  55 E8        30.25S
WADENA         CLOUDY    43  28  56 NE7       30.25S
GLENWOOD       PTSUNNY   45  28  53 E13       30.23R
APPLETON       PTSUNNY   46  27  46 E13       30.22R
BENSON         PTSUNNY   45  28  53 E9        30.24R
ORTONVILLE     CLOUDY    46  28  49 E6        30.23R
MADISON        PTSUNNY   48  28  46 NE7       30.24R
WILLMAR        PTSUNNY   46  30  53 E8        30.24R
$$
MNZ033>034-036-042>043-049>051-058-059-101500-
   Central Minnesota

CITY           SKY/WX    TMP DP  RH WIND       PRES   REMARKS
ST CLOUD       MOSUNNY   45  27  49 NE10      30.23R
SAUK CENTRE    CLOUDY    43  29  56 NE9G18    30.24R
PAYNESVILLE    MOSUNNY   45  32  61 NE9       30.23R
AITKIN         PTSUNNY   41  28  60 CALM      30.26R
PINE RIVER     CLOUDY    43  28  56 NE6       30.28S
BRAINERD       CLOUDY    44  25  47 NE9       30.25S
STAPLES        CLOUDY    45  27  49 NE6       30.25S
LONG PRAIRIE   CLOUDY    41  28  60 NE9       30.24S
LITTLE FALLS   CLOUDY    43  21  42 NE6       30.24S
CAMP RIPLEY    PTSUNNY   44  27  50 NE10      30.26R
LITCHFIELD     MOSUNNY   46  34  61 NE9       30.22R
BUFFALO        PTSUNNY   46  29  52 MISG      30.23R
MAPLE LAKE     CLOUDY    46  31  55 NE9       30.23R
HUTCHINSON     PTSUNNY   47  33  59 NE12      30.22R
$$
MNZ037-044-045-052-053-101500-
   East Central Minnesota

CITY           SKY/WX    TMP DP  RH WIND       PRES   REMARKS
PRINCETON      SUNNY     46  28  49 NE7       30.24R
MORA           SUNNY     43  28  56 CALM      30.25S
CAMBRIDGE      SUNNY     46  28  49 E6        30.24R
RUSH CITY      SUNNY     43  29  57 NE6       30.24S
MOOSE LAKE     CLOUDY    41  30  65 NE3       30.24R
HINCKLEY       CLOUDY    43  30  61 NE7       30.25R
CLOQUET        CLOUDY    39  27  60 N3        30.24R
$$
MNZ071>073-080-081-089-090-097-098-101500-
   Southwest Minnesota

CITY           SKY/WX    TMP DP  RH WIND       PRES   REMARKS
MONTEVIDEO     PTSUNNY   46  25  42 E12       30.22R
GRANITE FALLS  SUNNY     49  30  47 NE12      30.23R
CANBY          SUNNY     46  30  54 NE9       30.23R
MARSHALL       SUNNY     45  28  51 NE7       30.21R
REDWOOD FALLS  SUNNY     49  25  39 E10G20    30.19R
OLIVIA         MOSUNNY   46  27  46 NE10G17   30.20R
PIPESTONE      SUNNY     45  30  57 NE12      30.17R
WINDOM         SUNNY     45  28  53 NE13      30.16R
WORTHINGTON    SUNNY     48  31  51 N13       30.16R
JACKSON        SUNNY     46  28  49 NE9       30.15S
TRACY          SUNNY     46  26  45 E9        30.19R
SLAYTON        SUNNY     44  26  49 NE12      30.18R
$$
MNZ065>067-074>077-082>085-091>093-101500-
   South Central Minnesota

CITY           SKY/WX    TMP DP  RH WIND       PRES   REMARKS
MANKATO        MOSUNNY   47  26  44 E14       30.19R
NEW ULM        PTSUNNY   46  27  46 E10G17    30.18S
ST JAMES       MOSUNNY   46  27  46 NE15      30.17R
FAIRMONT       MOSUNNY   47  26  44 NE13      30.16R
GLENCOE        PTSUNNY   44  33  64 E10       30.20R
FARIBAULT      MOSUNNY   46  28  49 NE12G20   30.19R
OWATONNA       MOSUNNY   46  28  49 NE18      30.16S
WASECA         MOSUNNY   45  28  53 NE15G22   30.18R
ALBERT LEA     PTSUNNY   46  28  49 E12       30.14S
$$
MNZ078>079-086>088-094>096-101500-
   Southeast Minnesota

CITY           SKY/WX    TMP DP  RH WIND       PRES   REMARKS
ROCHESTER      MOSUNNY   44  29  55 NE18      30.16R
RED WING       MOSUNNY   45  27  49 NE10      30.19S
STANTON        CLOUDY    44  31  61 NE15      30.19R
DODGE CENTER   MOSUNNY   45  27  49 NE14      30.16R
WINONA         CLOUDY    43  30  61 NE9       30.20R
AUSTIN         PTSUNNY   46  30  53 E12       30.14S
PRESTON        MOSUNNY   44  31  60 NE12G17   30.15F
$$
ABBREVIATIONS USED IN REMARKS
   TC - TEMPERATURES IN CELSIUS
  WCI - WIND CHILL INDEX
   HX - HEAT INDEX
  VSB - VISIBILITY
$$



USA.gov is the U.S. government's official web portal to all federal, state and local government web resources and services.